Flag for United Kingdom Weather past 2 weeks in Taunton, England, United Kingdom

Now
54 °F

Cool.


Feels Like: 53 °F
Forecast: 51 / 67 °F
Wind: 5 mph from Northwest

Location: Dunkeswell Aerodrome

Current Time: May 23, 2015 at 12:00:54 AM

Latest Report: May 22, 2015 at 11:00 PM


Visibility: 28 mi

Pressure: 30.29 "Hg

Humidity: 91%

Dew point: 52 °F

Location of TauntonLocation

Historic Weather in Taunton — Graph

°F

Taunton temperature yesterday

Maximum temperature yesterday: 65 °F (at 5:00 PM)
Minimum temperature yesterday: 46 °F (at 12:00 AM)
Average temperature yesterday: 55 °F

Past Weeks' High & Low Weather Summary

 TemperatureHumidityPressure
High65 °F (May 11, 4:00 PM)100% (May 8, 12:00 AM)30.43 "Hg (May 8, 12:00 AM)
Low38 °F (May 13, 5:00 AM)43% (May 11, 3:00 PM)29.68 "Hg (May 19, 5:00 AM)
Average50 °F82%30.08 "Hg
* Reported May 7 9:00 PM — May 22 9:00 PM, Taunton, Weather by CustomWeather, © 2015

Note: Actual official high and low records may vary slightly from our data, if they occured in-between our weather recording intervals... More about our weather records

Advertising

Taunton weather history for previous 24 hours

 ConditionsComfort  
Time TempWeatherWind HumidityBarometerVisibility
9:00 PM
Fri, May 22
56 °FCool.5 mph86%30.28 "Hg31 mi
8:00 PM59 °FCool.8 mph79%30.27 "Hg31 mi
7:00 PM61 °FCool.8 mph75%30.26 "Hg25 mi
6:00 PM63 °FMild.9 mph71%30.26 "Hg28 mi
5:00 PM65 °FMild.8 mph69%30.26 "Hg19 mi
4:00 PM63 °FMild.8 mph72%30.27 "Hg31 mi
3:00 PM61 °FCool.8 mph72%30.28 "Hg8 mi
2:00 PM61 °FCool.10 mph73%30.29 "Hg19 mi
1:00 PM61 °FCool.9 mph77%30.29 "Hg19 mi
12:00 PM59 °FCool.8 mph81%30.31 "Hg25 mi
11:00 AM56 °FCool.7 mph94%30.32 "Hg25 mi
10:00 AM53 °FCool.7 mph100%30.33 "Hg19 mi
9:00 AM51 °FCool.7 mph100%30.33 "Hg5 mi
8:00 AM50 °FDuststorm.6 mph100%30.33 "Hg0 mi
7:00 AM49 °FDuststorm.6 mph100%30.33 "Hg1 mi
6:00 AM48 °FCool.6 mph100%30.33 "Hg1 mi
5:00 AM47 °FDrizzle. Overcast.6 mph100%30.34 "Hg0 mi
4:00 AM48 °FCool.7 mph100%30.35 "Hg1 mi
3:00 AM47 °FDuststorm.5 mph100%30.37 "Hg1 mi
2:00 AM47 °FCool.5 mph97%30.37 "Hg10 mi
1:00 AM46 °FCool.6 mph95%30.39 "Hg11 mi
12:00 AM46 °FCool.6 mph90%30.39 "Hg11 mi
Weather by CustomWeather, © 2015

See weather overviewHow to use our weather pages